Hundreds of Positions Available Nationwide

Apply for an Exciting Career Opportunity!


The following jobs are currently available.
Click on the job to find out more about the requirements for the position.

#Job IDTitle# OpeningsLocationRateDurationPostedCategory 
1 183556 Production Clerk 1Louisville, KY$DOE9 months12/12/2019GENO,
2 183559 Material Handler 1Carlsbad, CAUp to $14.00 DOE12 Months12/12/2019GENO,
3 183525 Shipping and Receiving Clerk 1Alpharetta, GAUp to $20.00 DOE6 Months12/11/2019GENO,
4 183539 Loader 1Petaluma, CA$DOE1 MONTH12/11/2019GENO,
5 183544 Assembler 4Clearwater, FL$DOE12 months12/11/2019GENO,
6 183546 Logistics Management Analyst 2Tampa, FL$DOE 12/11/2019GENO, S
7 183549 Assembler 1Santa Maria, CAUp to $13.00 DOE6 Months12/11/2019GENO,
8 183552 Production/Inventory Coordinator B 2North Charleston, SC$DOE6 Months12/11/2019GENHSM,
9 183503 Warehouse Loader 1Shelton, CT$DOE3 Weeks12/10/2019GENO,
10 183504 General Laborer 1Walton, KYUp to $14.00 DOE6 Months12/10/2019GENO,
11 183414 Assembler 3rd 1Asheville, NCUp to $15.00 DOE12 mos12/06/2019GENO,
12 183415 Assembler 3rd 1Asheville, NCUp to $15.00 DOE12 mos12/06/2019GENO,
13 183418 Material Control Coordinator 1Rancho Bernardo, CA$DOE3 Months12/06/2019GENO,
14 183429 Label Project Coordinator 1Indianapolis, INUp to $16.00 DOE24 Months12/06/2019GENO,
15 183432 Material Handler 1Carlsbad, CAUp to $15.50 DOE12 mos12/06/2019GENO,
16 183389 Material Handler 1San Jose, CAUp to $18.00 DOE5 Months12/05/2019GENO,
17 183390 Production/Inventory Coordinator B 1North Charleston, SC$DOE6 Months12/05/2019GENHSM,
18 183393 Logistics Representative 3 1Andrews AFB, MD$DOE6 Months12/05/2019GENO, S
19 183402 Logistics Clerk 1Golden Valley, MN$DOE3 MONTHS12/05/2019GENO,
20 183405 Lead Logistics Clerk 1Golden Valley, MN$DOE3 MONTHS12/05/2019GENO,
21 183407 Shipping/Receiving Assistant 1Fort Worth, TX$DOE11 months12/05/2019GENO, I
22 183344 Farm Tech 1Lenexa, KSUp to $15.00 DOE12 mos12/04/2019GENO,
23 183345 Production Technician- 2nd Shift 1Logan, UTUp to $13.00 DOE12 mos12/04/2019GENO,
24 183347 Warehouse - General 1Agawam, MA$DOE12 mos12/04/2019GENO,
25 183348 Material Handler I 1San Diego, CAUp to $15.00 DOE12 mos12/04/2019GENO,
26 183349 Material Handler I 1San Diego, CAUp to $16.09 DOE12 mos12/04/2019GENO,
27 183356 Warehouse Worker 1Chino, CAUp to $15.00 DOE12 mos12/04/2019GENO,
28 183362 Material Handler 1Scotts Valley, CAUp to $25.00 DOE12 mmos12/04/2019GENO,
29 183324 Assembler II - 2nd Shift - ULT 1Asheville, NC$DOE12 mos12/03/2019GENO,
30 183336 Receiving Clerk 1Cypress, CA$13 to $14.00 DOE6 Months12/03/2019GENO,
31 183264 Stores Specialist 1Menlo Park, CA$20 to $30.00 DOE2 Months11/27/2019GENO,
32 183267 Assembler 3rd 1Asheville, NCUp to $15.00 DOE12 mos11/27/2019GENO,
33 183268 Assembler 3rd 1Asheville, NCUp to $15.00 DOE12 mos11/27/2019GENO,
34 183270 Assembler 1st 1Asheville, NCUp to $14.00 DOE12 mos11/27/2019GENO,
35 183291 Stock Assistant 1Marion, MA$14 to $17.00 DOE12 Months11/27/2019GENO,
36 183303 Shipping/Receiving Clerk 1Santa Maria, CAUp to $12.00 DOE7 Months11/27/2019GENO,
37 183304 Facilities Maintenance Technician 1Tupelo, MS$DOE3-6 Months11/27/2019GENO,
38 183305 Facilities Maintenance Technician 1Tupelo, MS$DOE3-6 Months11/27/2019GENO,
39 183306 Facilities Maintenance Technician 1Tupelo, MS$DOE3-6 Months11/27/2019GENO,
40 183233 Logistics Clerk 1Tempe, AZ$DOE12 months11/25/2019GENO,
41 183235 Production Control Support Associate 1Owego, NY$DOE12 months11/25/2019GENO,
42 183209 Material Control Coordinator 1Tupelo, MS$DOE3-6 Months11/22/2019GENO,
43 183174 Material Handler 1Grand Island, NYUp to $14.00 DOE12 Months11/20/2019GENO,
44 183176 Material Handler 1Grand Island, NYUp to $14.00 DOE12 Months11/20/2019GENO,
45 183177 Material Handler 1Grand Island, NY$DOE12 Months11/20/2019GENO,
46 183138 Shipping/Receiving Clerk I 1Garden Grove, CA$DOE6 months11/19/2019GENO,
47 183141 Assembler 1Santa Maria, CAUp to $12.00 DOE6 Months11/19/2019GENO,
48 183148 Loader 1Sacramento, CA$DOE1 month11/19/2019GENO,
49 183102 Assembler 1Santa Maria, CAUp to $12.00 DOE6 Months11/18/2019GENO,
50 183035 Production/Inventory Coordinator B 2Smithfield, PA$DOE9 Months11/14/2019GENO,
51 183042 Production/Inventory Coordinator A 8North Charleston, SC$DOE6 Months11/14/2019GENHSM,
52 182996 Material Handler 1San Diego, CAUp to $15.00 DOE12 Months11/13/2019GENO,
53 183010 Material Handler 1San Diego, CAUp to $13.44 DOE12 Months11/13/2019GENO,
54 182913 Material Coordinator 1San Antonio, TX$DOE6 MONTHS11/10/2019GENO,
55 182896 Material Handler I 1Chino, CAUp to $13.97 DOE12 mos11/08/2019GENO,
56 182871 Composite Technician 25Mesa, AZ$DOE12 Months11/06/2019GENO,
57 182770 Warehouse - Shipper 1Florence, KYUp to $14.00 DOE12 mos11/04/2019GENO,
58 182678 Associate Equipment Operator, Folder- Gluer 1Bohemia, NYUp to $16.50 DOE12 mos10/30/2019GENO,
59 182592 Material Control Coordinator 1Fredericksburg, VA$DOE2 Months10/24/2019GENO,
60 182551 Material Handler 1Huntsville, AL$DOE3 Months10/23/2019GENO,
61 182553 Production/Inventory Coordinator A 4North Charleston, SC$DOE6 Months10/23/2019GENHSM,
62 182526 Loader 1Peoria, AZ$DOE3 Months10/22/2019GENO,
63 182473 Product Repair/Mod Tech C 1Eglin AFB, FL$DOE12 Months10/21/2019GENHSM, S
64 182474 Product Repair/Mod Tech D 1Eglin AFB, FL$DOE12 Months10/21/2019GENHSM, S
65 182476 Product Repair/Mod Tech C 1Eglin AFB, FL$DOE11 Months10/21/2019GENHSM, S
66 182444 Structural Mechanic 1Jacksonville, FL$DOE12 Months10/18/2019GENHSM, OM
67 182445 Structural Mechanic 2Jacksonville, FL$DOE12 Months10/18/2019GENO, OM
68 182367 Production Assembler-2nd Shift 1Detroit, MIUp to $13.13 DOE5 mos10/16/2019GENO,
69 182369 Production Assembler-2nd Shift 1Detroit, MIUp to $13.13 DOE5 mos10/16/2019GENO,
70 182383 Aircraft Assembly Technician-Vertical Lift 30Mesa, AZ$DOE12 Months10/16/2019GENO,
71 182332 Assembler 1Clearwater, FL$DOE12 months10/15/2019GENO,
72 182364 Shipping Clerk 1Cypress, CA$DOE6 Months10/15/2019GENO,
73 182286 LOGISTIC CLERK 1HUNTINGTON BEACH, CA$DOE5-6 months10/11/2019GENO,
74 182178 Flight Line Inspector 2Mesa, AZ$DOE8 Months10/08/2019GENHSM,
75 182099 Janitor 2Pinellas Park, FL$DOE18 MONTHS10/03/2019GENO,
76 182008 Stock Assistant 1Syracuse, NY$17 to $18.00 DOECTH10/01/2019GENO,
77 182036 Material Handler 1San Jose, CAUp to $18.00 DOE12 Months10/01/2019GENO,
78 181950 Fill and Fair Associate 1Cypress, CA$DOE 09/27/2019GENO,
79 181956 Inventory Site Specialist 1Thousand Oaks, CAUp to $14.00 DOE6 Months09/27/2019GENO,
80 181958 Inventory Site Specialist 1Thousan Oaks, CAUp to $14.00 DOE6 Months09/27/2019GENO,
81 181906 General Maintenance Worker 1Coronado Island, CA$DOE4 MONTHS09/26/2019GENO, OM
82 181909 Material Handler 1Asburn, ALUp to $11.00 DOE2 Months09/26/2019GENO,
83 181765 Depot Service Technician 1Tewksbury, MAUp to $22.00 DOE12 mos09/23/2019GENO,
84 181812 General Laborer I 1Walton, KY$DOE3 MONTHS09/23/2019GENO,
85 181736 Material Handler 1Pleasanton, CAUp to $17.73 DOE11 mos09/20/2019GENO,
86 181209 Material Handler 1Alpharetta, GAUp to $20.00 DOE10 Months08/23/2019GENO,
87 180418 Shipping/Receiving Clerks 1Ogden, UT$DOE5 months07/16/2019GENO,
88 180302 Production Assembler 2HUNTINGTON BEACH, CAUp to $13.50 DOE6 MONTHS07/10/2019GENO,
89 180163 Fabrication Specialist A 7Salt Lake City, UT$DOE12 Months07/02/2019GENHSM,
90 180155 Aircraft Mechanic II 1Lexington, KY$DOE3 MONTHS07/01/2019GENO, I
91 180046 Senior Shipping/Receiving Clerk 1Anaheim, CAUp to $20.00 DOE6 Months06/25/2019GENO,
92 179979 Fabrication Specialist A 7Salt Lake City, UT$DOE12 Months06/21/2019GENHSM,
93 180001 Detailer 3Huntington Beach, CA$DOE 06/21/2019GENO,
94 179939 Composite Technician 20Mesa, AZ$DOE12 Months06/19/2019GENO,
95 179854 Hand Mill Operator 1Huntington Beach, CA$DOE 06/13/2019GENO,
96 179855 Hand Mill Operator 1Huntington Beach, CAUp to $13.25 DOE 06/13/2019GENO,
97 179767 Receiving Inspector 1Huntington, CA$DOE6 MONTHS06/10/2019GENO,
98 179732 Shipping/Receiving Clerk 1Ogden, UT$DOE6 months06/07/2019GENO,
99 179398 Material Handler I 1Grand Prairie, TX$DOE3 MONTHS05/17/2019GENO,
100 179244 Expeditor I 1Marysville, WAUp to $15.00 DOE9 Months05/09/2019GENO,
101 178699 Material Handler 1Grand Island, NYUp to $14.00 DOE12 Months04/15/2019GENO,
102 178643 Maritime Electrician 11San Diego, CA$22 to $28.00 DOE9 Months04/11/2019GENO,
103 178644 Fiber Optic Technician 2San Diego, CA$22 to $28.00 DOE6 Months+04/11/2019GENO,
104 178402 Material Handler 1Grand Prairie, TXUp to $13.05 DOE5 Months04/02/2019GENO,
105 178152 Material Handler 2Walton, KYUp to $14.00 DOE3 months03/25/2019GENO,
106 178187 Material Associate 1Pinellas Park, FL$15 to $21.00 DOE6+ months03/25/2019GENO, N
107 170803 Material Handler I 1Redmond, WA$DOE12 Months05/07/2018GENO,
108 170520 Material Handler I 1Houston, TX$10 to $11.00 DOE4 Months04/25/2018GENO,
Search request
Documents found: